{"data":{"norad_id":51981,"intl_designator":"2022-025AB","name":"STARLINK-3635","alt_names":[],"object_type":"PAYLOAD","status":"ACTIVE","operator":null,"country":"US","launch_date":"2022-03-09","launch_site_code":"AFETR","launch_vehicle":null,"mission":null,"orbit_class":"UNKNOWN","rcs_meters":null,"size_class":null,"mass_kg":null,"dimensions":null,"purposes":["comms"],"wikipedia_slug":null,"has_3d_model":false,"image_url":null,"decayed_at":null,"tle_current":{"epoch":"2026-05-25T04:31:56.303904Z","epoch_age_seconds":69124,"freshness":"FRESH","line1":"1 51981U 22025AB  26145.18884611 -.00002102  00000+0 -11398-3 0  9991","line2":"2 51981  53.2131  55.7012 0001496  97.6481 262.4681 15.08851412232603","mean_motion":15.08851412,"eccentricity":0.0001496,"inclination_deg":53.2131,"raan_deg":55.7012,"arg_perigee_deg":97.6481,"mean_anomaly_deg":262.4681,"bstar":-0.00011398,"rev_number":23260,"period_min":95.436832848323,"perigee_km":538.67359757751,"apogee_km":540.74341695329,"semimajor_km":6917.8455072654,"source":"CELESTRAK","updated_at":"2026-05-25T13:38:16.995528Z"}}}